Weather Roundup
Issued by NWS Springfield, MO

Home | Current Version | Previous Version | Text Only | Print | Product List | Glossary On
Versions: 1 2 3 4 5 6 7 8 9 10 11 12 13 14 15 16 17 18 19 20 21 22 23 24 25 26 27 28 29 30 31 32 33 34 35 36 37 38 39 40 41 42 43 44 45 46 47 48 49 50
000
NZUS99 KSGF 271707
HRRSGF

HOURLY WEATHER
NATIONAL WEATHER SERVICE SPRINGFIELD MO
1200 PM CDT WED MAY 27 2015

......SGF CWA......

CITY           SKY/WX    TMP DP  RH WIND       PRES   REMARKS
SPRINGFIELD    SUNNY     77  64  64 SW5       30.12S
JOPLIN         PTSUNNY   79  66  64 N3        30.12R
WEST PLAINS    MOSUNNY   75  65  70 CALM      30.14S
ROLLA          MOSUNNY   74  65  73 W6        30.09S
BRANSON        MOSUNNY   77  64  65 NW3       30.14S

......SURROUNDING SGF CWA......

CITY           SKY/WX    TMP DP  RH WIND       PRES   REMARKS
CHANUTE        MOSUNNY   77  60  55 VRB6      30.11R
PARSONS        MOSUNNY   79  67  66 VRB5      30.11S
COFFEYVILLE    MOSUNNY   78  66  66 S7        30.10R
EMPORIA        MOSUNNY   75  56  51 SE9       30.11R
GROVE OK       MOSUNNY   79  64  61 W3        30.12S
ROGERS AR      SUNNY     77  64  64 CALM      30.14S
SILOAM SPRINGS SUNNY     79  63  57 W5        30.13F
HARRISON AR    SUNNY     79  61  53 VRB5      30.14R
NEAR YELLVILLE PTSUNNY   81  66  61 CALM      30.10S

......KANSAS AND MISSOURI......

CITY           SKY/WX    TMP DP  RH WIND       PRES   REMARKS
KANSAS CTY INT MOSUNNY   77  54  44 CALM      30.11R
DOWNTOWN KC    SUNNY     79  56  45 VRB3      30.09S
COLUMBIA       SUNNY     78  55  44 NW13      30.09S
SEDALIA        SUNNY     78  57  48 W7        30.12R
ST JOSEPH      SUNNY     78  55  44 CALM      30.10R
ST LOUIS       MOSUNNY   79  63  57 VRB7      30.07S
SPIRIT OF STL  MOSUNNY   78  64  61 W9        30.05F
KIRKSVILLE     SUNNY     75  60  59 W9        30.09R
WICHITA        PTSUNNY   77  64  64 SE14      30.09S
TOPEKA         SUNNY     77  56  48 VRB6      30.10R
OLATHE         SUNNY     77  54  44 E6        30.10R

......TENNESSEE......

CITY           SKY/WX    TMP DP  RH WIND       PRES   REMARKS
MEMPHIS        CLOUDY    77  67  71 SW8       30.17R
NASHVILLE      PTSUNNY   82  68  62 VRB6      30.18F

......ARKANSAS.......

CITY           SKY/WX    TMP DP  RH WIND       PRES   REMARKS
FAYETTEVILLE   SUNNY     78  66  66 MISG      30.12F
FT SMITH       SUNNY     82  65  56 NE5       30.09F
LITTLE ROCK    CLOUDY    80  68  66 S9        30.12F

......OKLAHOMA.......

CITY           SKY/WX    TMP DP  RH WIND       PRES   REMARKS
TULSA          MOSUNNY   81  67  62 VRB5      30.08R
PONCA CITY     MOSUNNY   78  68  71 VRB6      30.08S
MCALESTER      PTSUNNY   79  61  53 SW5       30.11R
OKLAHOMA CITY  CLOUDY    77  63  61 VRB6      30.09S

......IOWA............

CITY           SKY/WX    TMP DP  RH WIND       PRES   REMARKS
DES MOINES     SUNNY     76  53  44 CALM      30.05R
QUAD CITIES    MOSUNNY   73  59  61 W14       30.02S

......ILLINOIS........

CITY           SKY/WX    TMP DP  RH WIND       PRES   REMARKS
QUINCY         SUNNY     72  58  61 NW16      30.07R
CHICAGO        PTSUNNY   71  59  65 W15G23    29.97R



USA.gov is the U.S. government's official web portal to all federal, state and local government web resources and services.